User: anonymous
Location: UBC Liquid-Mirror Observatory
(49.2876°N, 122.5728°W)
Time: 01:24:32
(UTC-07:00)
Language:

Cosmos 1743 Rocket - Orbit

View from above orbital plane
View from above orbital plane
View from above satellite
View from above satellite

Ground track
Ground track

The orbit data is extracted from the following two-line orbital elements,

1 16720U 86034B   14113.85804681  .00000587  00000-0  69645-4 0  4222
2 16720 082.5560 233.5859 0018941 295.9592 181.9962 14.82703727508766
Epoch (UTC): 23 April 2014 20:35:35
Eccentricity: 0.0018941
inclination: 82.5560°
perigee height: 607 km
apogee height: 634 km
right ascension of ascending node: 233.5859°
argument of perigee: 295.9592°
revolutions per day: 14.82703727
mean anomaly at epoch: 181.9962°
orbit number at epoch: 50876

The dashed part of the orbit path shows where the satellite is in the earth's shadow,  

DLR